Presure
173 179 158 164 145 135 151 128 170 139 173 177 173 161 188 164 141 114 192 207 217 182 212 192 146 126 216 194 225 202 143 183 217 204 210 200 200 153 201 192 191 188 193
139 132 152 125 135 134 146 156 128 120 152 134 171 170 167 175 157 135 205 191 178 212 136 225 229 223 220 207 215 128 206 208 213 204 179 207 202 153 195 192 185 186 181
137 138 141 127 171 137 162 152 177 173 131 131 142 152 163 189 188 186 163 188 211 182 211 211 141 211 228 191 227 215 213 192 211 196 197 204 202 196 188 193 188 189 185
146 160 146 135 141 154 151 127 144 151 137 140 157 152 161 143 167 155 184 206 185 204 158 190 190 206 202 207 113 216 207 214 210 138 141 199 200 196 197 186 187 187 184
161 158 161 145 179 163 147 172 136 148 167 182 149 149 157 174 169 182 183 190 195 181 190 170 154 206 197 228 218 215 210 213 208 201 198 205 199 199 188 199 189 190 188
138 168 165 87 169 140 160 162 185 169 141 171 153 128 183 179 162 154 171 181 187 197 187 180 170 209 123 186 218 199 207 213 201 199 200 194 195 193 194 187 185 176 173
150 133 153 159 138 159 160 154 162 169 163 170 167 174 146 168 174 164 186 151 176 189 182 192 181 216 196 228 223 211 207 200 206 200 197 195 199 196 181 183 186 187 181
148 167 149 160 162 156 160 151 152 155 163 144 183 128 145 176 168 158 160 171 185 189 184 198 183 183 198 191 185 202 209 204 189 195 196 195 183 185 183 174 175 172 172
154 168 162 158 122 140 154 157 180 148 154 145 139 161 175 167 174 170 135 173 195 195 173 146 195 161 180 167 168 215 207 205 205 185 200 198 191 183 181 183 183 171 171
148 167 125 154 167 162 148 124 172 121 150 167 165 166 164 163 165 168 164 170 201 191 189 172 185 190 180 193 169 195 208 206 195 194 183 194 194 186 170 170 186 179 172
155 165 152 152 153 147 141 145 166 173 144 140 155 169 155 147 152 153 177 170 191 192 193 174 177 187 175 165 164 160 209 191 205 195 199 195 192 179 178 162 182 176 180
163 157 150 143 152 159 146 162 163 140 132 159 164 151 140 154 158 157 168 170 180 181 173 184 176 177 184 151 185 183 176 175 187 179 202 185 176 185 177 182 170 166 165
165 160 152 162 160 151 169 130 134 155 158 147 170 158 138 154 159 172 174 174 171 187 173 179 195 172 178 161 194 179 164 167 166 163 152 190 193 165 170 170 163 167 170
139 140 133 159 149 174 139 72 165 160 162 161 150 164 165 146 164 165 176 170 170 183 191 171 181 188 191 179 190 185 178 191 153 176 162 149 176 180 174 172 177 175 169
154 169 160 155 167 152 105 160 163 154 155 154 154 160 162 162 172 179 182 187 189 182 170 204 188 178 166 188 173 189 174 180 186 173 182 195 145 163 188 175 173 175 177
178 157 169 166 159 165 159 162 152 155 161 163 160 161 173 172 172 179 193 161 163 181 188 177 187 186 187 177 188 214 185 161 193 186 181 182 167 180 142 167 152 170 188
170 171 176 159 164 167 128 155 159 165 173 163 171 184 175 172 185 176 162 173 172 179 190 197 188 193 178 184 172 213 203 177 180 196 180 182 176 183 188 190 184 131 134
125 151 174 140 154 165 156 158 154 192 205 193 185 163 158 165 167 181 169 173 169 174 182 193 191 194 184 171 171 205 215 196 193 184 183 181 158 177 180 183 175 174 163
165 170 161 174 164 159 153 185 207 168 174 164 166 166 177 183 164 157 168 155 163 173 192 187 193 195 201 183 181 204 212 202 188 191 184 190 186 185 168 176 176 181 183
170 169 167 168 172 191 179 147 159 181 170 169 176 181 167 172 166 172 180 178 182 180 193 190 191 199 198 193 190 195 204 198 196 184 190 182 173 191 174 185 176 164 171
165 166 169 160 181 183 200 183 170 145 169 168 164 180 166 178 173 189 195 196 189 193 192 183 191 201 181 200 191 196 201 195 193 195 192 189 180 185 178 184 164 180 185
163 141 172 199 155 156 160 168 186 176 176 185 184 186 118 183 122 196 196 199 207 193 203 187 193 202 196 206 197 195 190 197 190 183 192 194 184 182 187 183 183 181 178
166 178 180 217 194 192 172 191 192 197 195 197 151 191 200 190 216 209 214 204 194 199 193 199 201 194 196 203 192 197 194 193 196 189 185 192 190 188 187 182 183 184 185
186 210 224 223 182 198 190 171 93 192 195 164 178 195 119 210 209 183 198 195 189 228 203 206 191 187 199 189 199 207 194 192 191 192 182 193 194 194 181 184 191 192 191
226 75 203 225 196 195 186 120 81 176 186 205 194 177 189 135 187 180 174 186 193 181 181 205 199 196 205 192 191 200 201 197 195 180 197 191 185 194 193 190 186 186 186
184 201 211 213 210 206 209 176 171 184 190 171 172 177 181 190 202 214 187 185 209 195 202 188 200 211 206 201 203 215 205 190 201 198 193 192 184 191 191 193 198 204 193
Wind_Speed
38 34 47 45 39 43 38 36 45 44 45 33 37 45 50 57 40 48 40 33 36 34 31 31 35 38 33 36 24 34 36 38 33 36 38 42 44 50 43 50 52 54 53
44 45 49 39 47 43 52 53 36 35 52 38 37 46 41 52 54 35 46 39 31 35 31 36 33 31 30 32 27 31 29 31 30 34 44 37 40 47 43 47 52 50 57
49 52 52 43 42 38 40 52 41 39 38 37 42 53 43 55 53 50 45 42 41 36 38 35 59 32 27 26 24 25 27 32 30 33 34 34 37 39 44 41 44 44 38
41 46 51 53 55 48 51 37 39 58 49 53 51 56 36 47 52 60 57 52 45 42 39 38 36 33 33 25 34 24 25 27 27 37 36 33 34 37 36 39 39 38 41
45 47 48 57 53 46 55 45 52 46 47 46 42 60 58 50 51 58 58 64 51 48 43 36 50 35 32 23 22 22 24 26 26 27 27 30 33 32 34 29 29 30 33
54 52 51 38 55 58 51 52 55 47 57 46 59 41 52 47 49 59 57 62 61 50 49 45 38 39 63 33 20 23 22 24 27 26 26 27 30 29 28 31 32 34 40
53 59 55 55 57 56 53 55 57 51 49 52 50 46 59 47 48 52 70 50 60 59 54 46 47 38 38 26 19 19 21 21 25 25 26 27 27 26 27 30 31 27 25
54 59 58 56 59 57 58 58 60 60 55 58 57 52 64 58 46 58 54 63 70 60 55 43 47 33 36 35 33 24 15 19 22 24 25 25 28 25 28 28 31 32 35
52 63 57 61 51 63 59 60 63 63 62 66 57 58 54 51 65 59 45 67 66 60 54 27 41 45 41 43 38 23 21 16 21 24 24 26 30 27 27 30 29 36 37
61 70 58 60 63 62 64 57 65 51 66 65 63 60 51 53 55 59 55 68 64 57 53 52 48 40 44 31 43 33 26 19 20 22 24 27 29 30 28 28 29 33 39
71 72 64 65 64 65 69 70 67 70 68 69 71 64 57 63 61 63 78 65 69 60 56 46 50 44 36 38 44 39 27 25 21 23 25 26 30 26 29 36 30 32 36
73 71 72 73 72 68 70 71 71 74 73 70 68 67 64 63 66 67 66 67 73 63 50 52 51 50 43 31 31 31 32 38 32 31 27 28 28 29 30 31 33 41 38
73 71 72 74 75 75 78 76 72 73 73 75 76 72 68 71 70 79 81 76 70 75 55 56 52 51 50 43 34 35 52 38 46 38 33 21 33 38 31 35 39 44 44
77 76 75 77 77 78 80 24 76 76 76 78 73 81 79 68 76 73 90 75 73 76 68 57 56 50 47 48 40 38 41 34 42 37 40 37 38 36 38 39 44 48 50
80 83 80 79 79 80 45 80 82 80 80 81 80 84 86 89 89 88 85 77 73 73 64 60 57 56 50 49 47 41 46 43 38 45 37 37 43 41 42 43 45 48 51
83 82 84 85 81 84 82 87 87 89 93 94 92 90 93 82 85 86 77 74 74 75 72 62 58 55 53 51 50 43 44 55 42 41 40 40 47 45 51 45 46 48 53
87 90 88 81 86 86 74 86 92 96 96 94 96 93 85 84 84 81 74 74 77 78 79 71 62 60 55 53 52 45 47 51 49 45 46 45 46 46 48 51 51 56 55
71 83 86 82 85 83 83 88 92 92 74 75 86 85 86 86 86 86 80 77 76 80 82 76 70 65 57 57 55 49 47 48 47 45 51 49 53 49 50 51 53 55 56
91 90 87 88 86 83 85 92 74 92 89 100 96 95 95 90 88 76 84 78 81 80 82 78 74 68 65 60 58 50 49 49 50 50 47 49 52 54 55 53 54 56 58
95 94 93 94 96 87 77 91 93 90 101 104 98 97 95 96 86 89 88 84 83 82 80 82 76 73 66 63 57 54 50 51 54 52 53 52 56 54 55 58 59 58 58
97 100 102 91 101 98 88 81 92 93 99 103 104 105 101 103 99 100 95 91 84 84 79 76 79 72 67 64 60 54 51 53 54 60 59 56 57 57 56 59 61 62 67
101 82 107 100 91 97 102 101 89 96 100 101 103 106 50 103 52 98 95 90 88 83 79 76 80 73 73 62 62 57 55 55 58 54 62 62 60 62 64 63 63 66 66
102 107 103 73 85 82 94 87 86 85 87 89 68 98 100 99 92 88 90 86 80 80 79 78 78 74 71 69 65 63 60 60 61 63 59 63 64 66 66 67 69 71 70
100 94 66 66 79 70 77 90 39 80 79 69 87 98 50 95 100 93 90 83 79 79 79 79 76 75 75 71 70 68 65 64 65 67 62 69 70 70 66 68 73 74 76
84 24 71 61 71 76 79 40 33 79 77 77 86 77 86 61 95 93 94 91 84 79 79 78 76 77 77 75 71 71 72 70 72 67 74 72 68 75 75 76 74 75 74
85 87 84 80 76 74 73 71 71 84 79 91 92 95 95 91 95 97 95 94 97 88 84 78 78 85 82 79 77 78 77 76 77 78 78 78 72 78 78 80 83 82 79
Wind_Direction
316 318 309 310 308 311 315 300 319 311 314 334 340 332 350 316 322 288 335 336 331 317 315 309 277 298 306 284 279 271 260 266 265 265 261 261 261 274 262 260 262 264 267
307 310 306 308 311 311 314 315 297 287 315 312 338 317 318 338 327 306 348 334 327 334 300 330 330 321 314 295 288 272 271 270 265 262 273 260 259 276 261 262 263 265 265
307 310 309 309 323 311 319 312 328 318 308 310 317 322 323 352 354 345 329 339 340 335 334 326 281 324 323 287 282 279 273 272 267 271 267 263 261 261 260 265 263 267 275
315 305 307 311 310 319 308 301 310 310 310 314 317 317 329 312 338 321 347 346 336 336 321 329 323 321 321 296 292 279 278 271 268 281 282 262 260 260 264 265 265 271 274
306 308 308 302 324 313 308 323 303 320 319 332 315 316 318 341 323 348 346 346 337 334 333 331 298 323 320 309 296 286 281 274 270 263 261 262 263 264 263 266 269 273 277
301 318 315 289 320 304 313 315 333 316 312 324 307 305 341 338 318 316 340 345 341 333 329 331 328 322 284 316 298 311 284 274 271 269 262 260 262 263 263 267 266 270 272
309 303 301 313 308 318 314 307 314 322 312 320 329 328 320 317 341 318 342 318 334 333 329 326 328 328 321 326 303 306 283 278 270 268 265 260 254 253 264 267 271 276 275
307 315 310 313 315 310 316 314 306 311 314 309 331 317 312 333 323 312 320 333 333 332 329 326 322 324 317 321 316 306 289 281 277 272 265 258 262 260 259 262 267 265 265
298 314 310 314 304 304 308 310 322 309 308 307 312 318 330 322 328 325 313 333 332 333 322 293 328 315 319 321 324 312 304 287 274 278 266 257 257 260 261 266 263 262 264
299 311 306 305 312 309 302 306 318 299 306 316 315 316 317 312 318 322 319 329 330 330 328 320 323 317 316 309 317 319 306 293 279 266 275 261 254 255 263 266 270 263 266
308 309 305 303 305 303 307 302 314 314 313 309 311 316 310 306 309 313 327 329 330 330 327 315 318 320 307 310 314 314 298 297 283 276 256 260 253 263 261 268 264 263 265
304 305 303 302 305 303 300 308 308 308 308 313 310 302 306 311 311 315 319 322 325 327 317 318 315 313 314 283 301 298 305 303 299 297 261 266 275 260 260 263 267 270 274
304 303 303 305 305 302 308 310 307 304 303 303 318 306 307 307 313 316 317 318 318 321 318 316 315 309 309 300 307 292 301 293 300 293 290 260 253 279 272 266 271 272 271
296 297 304 303 299 304 305 296 305 305 311 312 304 311 311 310 313 315 313 315 316 316 316 311 309 309 308 302 303 293 282 282 293 281 290 288 278 262 266 266 265 268 274
300 303 302 301 300 301 307 309 311 303 306 305 305 310 311 309 308 308 310 312 312 313 311 313 309 304 304 303 296 293 289 281 273 283 272 272 281 274 259 261 263 265 265
295 296 299 302 303 311 309 311 307 309 307 306 305 305 305 305 307 308 305 310 309 310 312 307 305 302 301 298 298 292 281 289 272 273 269 263 282 271 279 268 275 268 258
301 302 303 302 306 309 299 305 305 303 299 297 297 301 303 304 302 304 305 306 308 310 311 310 305 301 298 298 294 297 280 280 279 267 271 266 264 265 270 272 270 283 282
295 296 302 299 302 303 301 302 297 302 300 296 296 298 299 301 301 303 304 304 304 308 310 307 305 303 294 295 295 297 279 275 272 270 274 267 277 264 265 266 259 262 267
298 299 297 300 299 300 300 304 302 298 298 296 298 299 298 298 299 303 302 305 305 305 304 303 304 300 298 293 295 297 283 276 271 271 265 265 263 262 268 262 263 267 269
299 299 297 299 301 305 300 293 294 294 292 294 296 292 296 296 298 296 299 299 301 301 302 301 300 301 298 295 294 294 284 279 274 271 269 265 268 269 266 262 263 267 266
297 297 297 296 302 297 297 291 291 297 291 293 294 294 296 296 298 297 297 296 299 300 298 297 299 296 295 290 290 289 281 275 276 272 272 270 265 267 265 267 270 265 268
295 300 297 298 294 292 293 292 285 288 289 288 290 290 295 296 298 294 293 295 294 297 295 293 293 291 292 282 286 284 282 274 271 274 272 273 271 271 271 267 267 266 265
292 290 290 292 290 288 289 285 283 282 284 284 285 287 288 291 287 289 289 292 293 292 291 289 288 291 287 281 284 278 276 275 272 272 274 269 268 268 269 268 269 269 270
293 293 291 287 288 278 285 286 296 284 285 287 288 284 292 287 288 295 296 290 290 281 288 285 286 286 283 286 280 272 275 273 273 271 277 273 271 270 270 269 270 269 268
297 305 294 286 286 285 281 285 298 282 282 278 279 284 286 293 287 289 291 291 289 286 287 282 282 282 279 282 282 276 271 272 269 278 269 271 275 271 270 270 272 271 271
292 300 300 297 293 289 287 280 279 277 279 280 280 281 283 284 282 280 284 287 282 289 284 285 282 277 278 277 276 268 270 276 269 269 270 271 274 272 272 272 272 267 271